Volver al catálogo

COSMOS 2301

ActivoMilitarPO
NORAD 23443·PAYLOAD·🇷🇺 Russia

Lanzado Dec 26, 1994 desde Plesetsk Cosmodrome

Loading…

Próximos Pases (próximas 24 horas)

TLE

ActualizadoSource: Space-Track

Época: Sep 14, 2026, 23:36 UTC

1 23443U 94086C   26257.98358507  .00000005  00000-0 -30560-4 0  9994
2 23443  82.5665 263.4601 0001190 354.1654  33.1881 12.62228944461231

Sigue COSMOS 2301 en tiempo real con AllMySat

Download on the App Store